Theta_e
355 355 356 355 355 355 357 357 356 357 357 357 357 357 356 356 356 356 354 352 349 352 353 350 348 346 345 346 348 347 346 346 347 347 347 348 350 353 358 359 359 359 356 357 355 355 354 353 355 356 354 355 356 356 355 354 354 354 355 354 353 354 354 354 354 354 354 353 353 353 353 353 353 353 352 352 352 352 352 352 352 351 351 351 351
355 355 354 354 354 354 356 356 356 356 356 356 357 357 356 355 354 353 351 349 352 355 355 348 347 347 343 343 345 346 346 346 346 347 348 348 349 353 357 361 360 360 358 356 354 355 353 353 354 353 354 353 355 356 355 354 355 354 354 355 354 354 353 354 354 354 354 354 354 353 353 353 353 353 353 353 353 353 353 353 352 352 352 351 351
355 355 354 353 353 353 354 356 355 355 357 356 357 357 356 355 354 351 351 350 351 351 352 349 349 346 345 341 341 343 345 346 346 347 347 348 349 352 354 360 362 361 357 355 355 356 354 353 353 354 353 354 354 355 355 354 353 354 354 354 354 355 355 354 354 354 354 354 354 354 353 353 353 353 353 352 353 353 353 354 353 353 352 352 352
356 355 354 353 352 353 354 355 355 355 357 356 356 358 357 354 354 354 352 351 351 350 352 349 348 342 342 342 342 344 342 345 345 346 347 348 349 351 353 359 363 361 360 356 356 353 353 354 356 356 354 354 355 356 355 355 354 354 354 354 354 354 355 354 354 355 355 354 354 354 354 353 353 353 353 353 352 353 353 353 353 354 354 353 353
356 355 357 354 353 352 353 355 356 355 356 357 357 357 356 356 355 357 351 348 352 350 351 344 343 341 342 343 342 343 343 343 346 347 347 348 350 352 354 359 363 362 360 359 355 353 351 354 356 356 355 355 356 355 355 354 354 354 354 354 353 352 353 355 354 354 354 355 354 354 354 354 354 354 354 353 353 353 353 353 353 353 352 353 353
357 355 354 354 353 353 353 354 355 356 356 357 356 356 355 353 353 353 357 349 350 349 346 345 344 342 342 343 343 343 342 341 342 346 348 349 351 353 354 358 362 362 363 361 357 355 354 355 356 357 357 357 354 353 354 354 354 354 354 355 354 352 352 351 353 354 354 354 354 354 354 355 355 354 354 354 354 355 354 354 353 353 353 353 353
358 356 353 353 352 352 353 354 355 357 356 357 356 354 353 352 353 349 346 348 348 351 347 342 342 344 344 347 343 346 343 343 343 346 349 351 353 353 355 356 359 361 361 362 363 357 356 356 357 358 357 354 351 354 355 354 354 353 354 355 355 355 351 353 352 353 354 354 354 353 354 354 354 354 355 354 355 355 355 355 354 353 353 353 354
358 356 353 353 353 353 353 355 357 357 356 356 355 353 351 350 353 350 347 346 350 346 344 342 343 343 343 343 342 349 341 345 349 350 350 352 353 353 355 356 358 358 360 359 361 361 359 358 359 358 355 355 354 355 355 355 356 356 356 355 355 354 353 353 353 354 355 354 353 354 354 354 354 354 353 353 353 352 353 354 355 354 354 354 354
358 357 354 353 353 353 354 355 358 357 355 355 354 353 351 350 350 352 347 346 345 346 343 342 341 340 340 341 342 344 343 343 347 350 351 352 352 352 354 355 356 360 361 359 359 360 360 360 360 359 356 356 353 354 356 356 357 355 354 354 355 356 354 353 354 353 354 354 355 355 353 353 354 354 354 353 353 351 350 350 350 350 352 352 353
358 357 355 355 355 354 354 355 357 355 354 354 353 353 352 351 349 350 348 347 346 345 343 343 341 342 340 338 341 341 343 348 350 355 350 351 351 352 353 354 355 355 357 358 357 358 360 360 359 359 358 357 355 354 357 357 357 353 352 354 354 354 354 353 354 353 353 353 352 354 354 353 354 354 354 353 350 349 346 345 347 349 350 351 350
358 357 355 356 356 354 354 355 356 354 353 352 351 352 352 350 348 347 350 348 347 346 343 342 340 341 344 340 342 344 343 351 349 347 348 349 351 352 351 353 353 354 356 355 354 356 357 359 359 360 361 358 358 358 358 356 356 354 354 354 354 354 353 353 353 353 353 353 353 354 354 354 353 353 352 353 351 348 347 346 346 349 349 348 347
358 357 356 356 355 354 354 356 355 353 352 350 349 350 350 349 348 347 345 348 353 345 341 343 338 336 342 340 340 343 344 351 343 343 348 347 349 353 350 350 352 352 352 352 353 353 354 356 358 356 358 359 358 358 357 357 354 354 353 351 352 353 353 354 353 353 353 354 354 353 354 353 352 351 352 352 351 351 348 347 347 347 348 348 346
360 358 356 358 356 355 354 355 355 353 352 351 351 350 350 350 349 352 348 344 343 343 340 338 336 339 336 335 337 342 350 351 342 342 344 344 345 351 350 350 350 350 350 351 351 351 352 353 354 354 355 356 359 357 356 356 356 354 354 353 352 353 354 354 353 352 353 352 352 352 352 351 350 350 352 351 350 349 350 349 348 348 350 349 348
360 359 358 358 356 355 354 354 354 353 352 352 350 352 352 349 347 346 345 344 342 341 342 338 334 332 330 331 338 337 350 342 341 341 340 339 343 347 349 348 348 348 349 350 350 350 349 350 351 350 352 353 355 357 357 356 356 355 355 354 353 353 353 354 353 353 353 352 352 352 351 350 350 351 349 350 350 350 350 350 349 349 350 350 349
360 360 358 358 357 356 355 354 354 354 352 350 351 350 350 349 346 346 343 340 342 343 341 338 333 332 333 332 328 330 336 339 338 339 338 338 342 344 346 346 346 347 349 350 349 349 348 348 347 348 349 350 352 354 355 355 355 355 354 354 353 352 351 353 353 353 352 352 352 351 347 347 348 348 348 349 349 349 349 348 347 350 350 350 351
359 360 360 358 358 356 356 354 354 355 353 350 349 349 348 348 346 345 342 339 336 338 344 337 335 334 330 328 326 328 326 329 333 336 335 335 338 341 344 344 344 346 348 349 347 347 345 346 345 346 348 349 351 352 353 352 356 354 354 354 352 352 353 354 353 353 352 351 352 352 348 345 347 349 349 348 348 348 349 347 347 347 348 349 349
359 360 360 358 358 358 356 355 355 353 353 351 350 349 349 349 347 345 341 339 335 334 340 338 336 340 335 328 327 326 326 328 329 331 332 333 332 335 342 341 342 346 347 346 345 344 343 343 345 346 348 348 350 351 352 353 353 356 354 355 350 350 350 353 353 351 351 352 352 351 351 350 351 350 350 350 350 350 349 349 348 347 346 348 349
359 360 360 360 359 358 357 356 355 353 353 352 351 350 348 347 345 345 341 337 338 334 335 345 339 342 337 337 336 331 329 330 327 327 332 330 334 336 337 338 341 345 345 344 344 343 345 342 343 346 348 347 349 351 350 349 352 347 343 348 349 346 347 348 349 349 349 348 348 348 347 347 347 347 346 346 347 346 347 348 349 349 349 350 349
359 359 360 361 360 358 357 356 356 354 354 352 350 349 347 346 345 342 342 341 336 335 334 337 336 339 341 338 342 341 334 332 328 325 325 332 330 331 331 334 337 340 341 342 341 340 341 342 340 344 347 347 349 349 349 348 351 351 351 351 349 345 344 344 345 346 346 345 344 344 344 343 344 344 344 343 343 344 344 345 345 346 346 346 347
358 359 360 360 360 358 357 356 355 354 354 352 351 349 347 345 345 343 341 341 336 335 334 334 336 334 340 335 341 336 333 331 330 330 328 324 326 327 329 330 334 335 337 338 339 339 339 340 340 341 346 346 348 349 349 348 347 349 350 348 343 344 343 343 344 344 344 342 342 342 341 342 341 341 342 342 342 342 342 343 343 343 343 343 343
358 358 359 360 360 358 356 355 354 354 355 353 351 349 346 343 343 340 338 339 337 337 337 335 334 333 335 334 334 334 331 333 332 332 331 325 322 324 328 329 330 332 334 334 335 338 338 339 339 342 344 348 349 349 349 349 347 345 347 346 346 345 344 344 344 344 343 342 340 339 339 340 341 340 340 340 340 340 340 341 341 341 341 342 341
357 358 359 359 360 359 356 355 354 353 355 353 351 348 345 343 342 341 339 339 338 340 337 337 336 335 336 335 333 333 332 331 329 326 326 328 325 324 326 327 328 333 334 333 336 336 337 337 337 339 342 346 348 348 348 348 347 346 344 345 346 346 345 345 344 341 340 342 342 341 339 339 339 339 339 340 341 341 341 341 342 342 342 341 341
356 357 358 359 359 359 357 355 355 355 355 353 350 349 345 343 342 341 340 339 337 337 342 341 338 338 335 334 334 333 331 331 330 329 330 326 325 323 323 325 327 329 333 332 336 335 337 337 336 337 339 341 344 347 348 348 347 347 346 346 345 346 348 347 346 343 341 344 341 341 342 340 339 339 338 338 338 339 340 340 340 340 340 339 339
356 356 357 358 359 358 358 356 355 354 353 353 351 349 346 343 342 341 340 339 338 340 339 338 336 337 336 333 333 333 331 332 332 331 330 328 327 325 325 328 327 328 330 335 335 335 335 335 335 336 336 338 341 344 346 347 347 346 348 348 347 346 346 347 347 346 344 344 344 342 340 341 341 340 339 339 338 338 337 337 337 337 337 337 337
354 355 356 357 358 357 356 354 354 353 354 352 350 347 345 343 342 340 340 339 338 338 337 337 337 336 336 336 334 333 333 332 332 330 329 328 328 325 324 325 328 329 331 331 332 334 334 335 336 336 335 337 338 341 343 344 344 344 346 348 347 345 344 345 345 344 344 344 343 343 343 343 343 342 342 341 339 338 337 337 337 337 336 336 337
353 354 356 357 357 358 357 356 355 353 353 351 348 346 344 342 342 341 339 340 339 338 338 338 337 337 338 337 334 334 334 333 332 329 329 328 327 327 327 328 326 328 330 336 334 331 333 335 335 337 337 337 337 338 339 339 341 342 345 346 346 344 343 343 344 343 343 342 342 341 341 341 343 342 343 343 342 341 341 341 340 340 340 339 338
354 356 357 357 357 357 357 356 354 352 351 350 348 345 344 343 343 342 342 340 338 338 337 337 336 336 335 337 337 335 335 335 333 331 330 330 329 328 329 326 326 327 331 330 330 331 329 334 336 336 338 340 338 338 338 338 338 340 343 345 347 344 342 340 341 341 341 340 340 341 341 342 342 343 342 342 342 342 343 342 341 341 341 340 340
355 356 356 357 356 356 356 356 354 351 350 348 347 344 343 341 341 341 340 341 338 337 338 337 335 337 336 336 337 335 335 335 334 334 331 331 331 331 332 330 326 323 327 328 329 333 331 334 340 338 339 340 340 340 338 338 339 339 341 345 346 344 342 341 341 340 339 339 339 340 339 339 340 340 343 342 343 344 343 343 342 342 342 342 342
354 356 356 356 356 356 355 355 353 350 349 347 346 345 343 342 341 340 339 340 340 337 338 337 336 335 335 335 335 336 335 336 336 335 334 332 331 332 332 330 329 326 325 324 328 327 334 330 332 342 337 340 341 341 340 340 339 339 341 342 343 345 342 339 338 338 339 339 338 338 338 337 338 339 340 342 342 342 342 343 343 343 343 343 342
355 356 356 355 355 356 354 354 353 351 348 347 346 345 343 341 341 340 340 340 340 339 339 338 337 336 337 337 336 335 337 336 336 336 335 334 332 332 332 332 332 328 327 325 326 327 332 332 330 338 340 341 342 343 340 341 339 341 343 341 340 341 340 337 337 337 338 337 336 335 335 336 336 337 337 338 339 340 341 342 342 342 343 342 342
355 355 354 354 354 354 354 353 352 350 349 347 346 344 343 341 340 340 340 339 338 338 339 338 337 337 336 336 336 337 336 336 336 336 336 335 334 333 333 333 332 332 329 330 325 333 329 334 335 333 334 339 339 341 341 342 341 343 344 343 342 340 339 341 338 337 336 336 335 334 334 333 333 334 335 336 337 338 338 339 340 341 342 341 342
354 354 354 353 353 353 353 352 351 350 349 348 346 344 342 341 340 339 339 339 338 338 338 338 338 337 336 335 336 337 336 337 336 337 337 336 335 334 333 333 332 331 332 329 326 327 331 332 334 335 335 338 340 340 342 340 340 343 346 345 344 342 345 345 340 338 337 336 335 334 333 332 331 332 334 335 336 337 338 339 340 340 340 340 340
353 353 353 353 352 352 352 351 350 348 348 347 347 345 342 341 340 339 339 338 337 337 338 337 337 338 337 336 335 336 337 336 337 336 336 336 336 335 334 334 332 332 331 329 327 327 331 332 332 336 337 337 339 339 339 339 340 340 340 343 343 341 342 342 342 338 335 334 333 333 332 331 331 332 333 334 335 337 338 338 337 335 335 336 336
353 352 352 352 352 351 351 350 350 348 347 347 346 345 342 341 340 339 339 338 338 337 337 336 337 337 337 336 335 336 336 337 336 336 336 335 335 334 335 335 334 333 333 329 327 328 326 331 333 333 335 337 337 339 338 339 339 340 340 340 339 339 340 341 340 341 335 334 333 332 332 331 330 330 331 332 333 334 335 335 334 331 332 333 332
352 352 352 352 351 351 350 350 349 348 347 346 346 344 343 341 340 339 339 338 337 337 336 336 336 337 336 336 336 336 336 335 336 336 336 336 336 336 335 335 335 334 333 332 330 326 327 331 333 334 335 336 336 339 338 338 339 338 338 338 338 338 339 339 339 339 335 334 332 332 331 331 330 329 329 329 330 330 330 329 328 328 328 327 326
351 352 352 351 351 350 349 349 349 348 347 346 345 344 343 342 341 340 339 338 337 337 337 336 336 336 336 336 335 336 336 335 335 335 335 336 336 336 335 336 335 334 334 334 333 333 332 331 333 334 336 335 336 337 337 337 337 339 338 338 338 338 339 339 339 339 337 333 332 330 331 330 329 328 327 327 326 326 325 325 325 325 324 325 325
351 351 351 351 350 349 348 348 348 347 347 346 345 344 343 343 342 341 340 338 338 337 337 337 337 336 335 335 336 336 336 335 335 334 334 334 335 336 335 335 335 334 335 335 335 335 333 331 332 333 334 335 336 337 337 336 337 338 338 337 336 336 337 337 337 337 336 333 333 332 331 330 330 330 328 327 326 325 325 325 324 322 323 322 320
351 351 351 350 350 349 348 348 348 348 347 347 346 344 343 342 342 341 340 339 338 338 337 337 337 337 335 336 336 336 335 334 333 333 334 334 335 335 335 335 335 336 336 335 336 335 334 333 333 333 333 333 336 336 337 337 336 335 335 335 336 336 336 336 336 335 336 336 335 336 334 333 331 329 329 327 326 325 324 323 323 322 321 319 316
351 350 350 350 350 350 349 349 348 348 347 347 346 346 344 343 342 341 340 339 338 338 337 338 337 337 337 336 336 336 334 334 334 334 334 334 335 335 335 334 335 336 335 334 334 333 333 332 332 332 332 333 332 333 335 336 336 334 333 333 333 337 336 335 334 336 335 335 335 334 334 334 333 332 326 323 324 325 324 322 321 321 321 320 317
351 351 350 350 350 350 349 349 348 348 347 346 346 346 345 344 342 341 340 339 338 337 338 338 337 337 337 337 336 335 335 335 336 335 335 333 335 335 337 335 334 334 334 333 332 332 332 331 331 331 331 332 332 332 334 334 333 332 331 330 327 330 333 336 336 333 334 335 334 332 331 331 330 330 327 327 327 325 323 323 325 327 324 320 318
352 352 351 351 350 349 349 349 348 348 347 346 346 346 345 344 343 341 340 339 338 337 337 337 337 337 337 337 337 336 337 338 339 337 338 337 335 334 336 337 335 334 333 333 332 332 332 331 331 331 330 330 331 331 330 330 330 328 328 327 327 330 332 330 333 334 333 331 331 330 330 331 331 333 332 330 329 327 326 326 326 326 324 319 319
352 352 352 351 350 349 348 348 348 347 347 347 339 329 333 344 343 342 341 340 339 338 338 337 337 337 337 336 338 339 339 340 340 340 338 338 338 336 336 336 336 335 335 334 333 332 332 330 330 330 328 328 329 331 330 331 332 330 326 325 325 329 330 329 331 334 334 330 329 328 329 331 329 330 329 326 326 327 326 325 324 323 322 321 321
352 352 352 350 350 350 349 348 347 347 347 346 330 327 328 332 341 343 341 340 340 339 338 338 337 337 337 338 338 340 339 341 339 340 339 336 336 335 334 334 336 336 334 333 333 333 332 331 332 330 329 329 331 331 330 330 330 330 329 330 329 328 326 324 324 330 335 331 331 329 329 331 328 325 326 325 325 326 326 326 323 322 321 321 321
352 352 351 350 350 350 350 349 348 347 347 334 327 326 327 327 331 343 342 341 340 339 339 338 338 338 337 337 336 338 339 339 339 339 339 336 334 334 333 333 333 334 334 334 332 331 331 331 331 331 330 329 330 330 330 329 330 331 330 329 329 327 326 325 325 324 330 331 329 327 326 331 327 323 323 325 326 327 325 324 322 320 320 320 319
352 351 351 351 350 351 350 349 348 348 348 333 326 325 326 326 327 334 343 341 340 340 339 339 338 338 338 336 335 334 337 341 340 339 339 340 335 332 333 334 333 332 329 330 332 336 335 334 332 330 330 331 330 331 331 333 333 329 329 328 328 327 327 325 326 326 330 330 326 323 320 323 324 322 321 325 325 326 325 323 322 321 320 319 318
351 351 351 351 351 350 350 350 349 349 349 333 325 323 323 323 325 330 343 342 341 341 340 339 339 338 337 335 335 335 337 339 339 338 337 337 338 338 337 338 338 338 332 329 327 329 333 335 333 331 332 332 332 333 334 334 331 329 329 327 328 327 326 326 328 327 329 325 323 321 318 320 323 322 321 324 326 326 327 324 321 320 319 318 316
351 350 350 350 350 350 350 350 350 349 350 330 322 321 320 321 323 326 342 343 342 341 341 340 340 339 338 338 337 336 336 337 338 337 336 336 336 336 335 335 336 337 337 335 334 334 335 334 334 333 334 334 334 334 334 334 333 333 332 330 329 328 327 325 323 323 324 325 323 320 315 320 323 320 321 323 324 325 326 322 320 317 317 316 316
352 352 352 351 350 350 351 350 349 349 350 326 321 320 319 320 322 333 340 342 342 341 340 340 339 339 339 339 338 337 336 337 334 332 335 337 336 334 334 334 333 333 334 333 330 332 337 336 335 335 334 333 330 334 334 334 333 333 331 329 326 325 323 321 319 319 319 323 324 321 317 317 323 319 320 323 323 320 321 320 317 316 315 315 315
351 351 351 351 351 351 350 350 349 349 350 330 319 318 318 318 321 336 338 340 341 340 340 340 340 339 338 339 338 336 336 336 332 325 329 337 335 333 332 330 330 330 331 333 326 325 326 323 321 323 324 322 320 317 315 316 326 327 326 322 321 319 318 316 317 317 318 320 321 321 318 316 320 320 318 319 318 316 317 318 320 316 315 314 314
350 351 351 351 351 351 350 350 349 349 349 333 317 317 317 316 323 337 338 339 339 340 340 340 339 339 338 340 339 337 336 336 326 322 325 334 334 333 331 328 327 328 329 332 332 327 319 318 318 318 318 318 318 317 317 315 314 320 323 320 320 319 318 317 316 317 317 319 320 321 318 316 319 317 314 316 316 317 317 319 320 319 317 315 313
352 352 351 351 351 351 351 350 337 345 350 335 315 317 316 315 325 339 339 339 338 338 339 337 337 337 338 340 339 337 335 332 320 320 322 331 333 332 332 330 328 328 329 330 327 325 325 325 325 326 325 325 327 327 327 320 317 321 324 323 321 320 319 319 317 316 311 313 319 323 316 315 314 316 314 311 308 314 317 317 318 320 320 320 320
Wind_Speed
4 4 3 4 4 3 3 3 2 3 2 2 2 3 4 3 3 3 2 2 1 0 0 2 2 1 3 3 3 3 3 3 3 3 2 2 2 4 7 8 9 11 8 8 7 8 7 9 8 8 8 8 10 10 10 8 8 9 9 9 9 9 8 8 8 7 8 7 7 7 7 6 6 6 5 5 5 5 5 5 5 4 4 4 2
4 3 3 4 3 3 3 3 3 3 2 3 3 3 4 4 3 1 2 2 1 1 1 2 1 1 1 2 3 2 3 3 3 3 2 2 2 3 7 8 10 10 9 9 9 10 8 7 6 7 7 7 10 10 8 9 11 9 9 10 9 9 9 8 8 8 7 7 7 7 7 7 6 6 6 6 6 6 5 5 5 5 4 5 4
4 4 3 3 3 3 4 3 3 3 3 4 2 3 3 3 3 1 2 2 1 1 2 2 2 3 1 2 2 2 3 3 3 3 3 3 2 3 4 8 9 10 7 7 8 8 6 6 9 8 8 9 8 9 9 8 6 9 9 10 10 9 8 8 8 8 8 7 7 7 7 7 7 6 5 6 6 7 7 6 6 6 5 5 5
4 4 3 3 4 4 4 3 4 3 3 3 3 3 3 3 1 1 2 2 1 0 1 1 2 2 2 3 2 1 2 2 3 3 3 2 2 3 3 4 7 8 7 8 10 5 6 8 9 7 6 7 10 8 9 8 9 10 8 9 8 8 9 9 9 9 9 8 8 8 8 8 8 7 6 6 7 8 8 8 7 6 7 6 6
4 4 4 4 4 4 4 4 4 3 3 4 3 3 2 2 2 2 1 1 1 2 2 1 3 2 2 3 2 3 1 2 2 2 3 2 2 2 2 3 3 6 6 6 5 8 10 12 12 10 8 9 9 9 9 8 9 8 8 7 7 8 8 9 10 10 9 9 8 9 8 8 8 8 7 8 9 8 7 8 8 8 7 8 7
4 4 4 4 4 4 5 5 4 4 3 3 3 3 3 3 3 2 1 1 2 2 2 3 2 1 1 1 2 3 1 1 2 3 2 2 2 2 2 2 3 2 1 3 7 13 13 11 11 10 9 10 7 8 8 7 7 9 9 9 8 7 10 10 7 8 8 8 7 8 9 9 9 9 8 8 9 8 8 8 8 8 8 8 8
5 5 5 4 4 4 5 5 4 3 3 3 4 3 3 4 2 2 3 2 2 1 2 1 1 2 1 1 1 2 2 2 1 2 2 3 2 2 2 2 2 2 2 0 1 7 10 10 10 10 10 7 7 9 10 8 6 6 8 9 9 7 5 9 8 9 8 8 7 8 9 10 9 9 9 9 9 9 8 8 8 8 8 8 9
6 5 5 4 4 5 5 5 5 3 3 3 3 4 4 3 1 2 4 3 2 1 2 2 1 2 2 2 1 2 2 2 1 1 2 2 2 2 2 1 1 2 3 1 1 1 5 8 9 10 9 10 11 10 11 11 9 9 8 8 8 8 7 7 9 9 8 7 9 9 9 10 10 9 7 8 7 7 9 10 9 9 9 9 9
6 6 5 5 5 5 5 5 3 3 3 3 4 3 4 3 1 1 3 4 2 3 2 2 2 2 1 3 2 2 3 2 1 1 2 3 3 2 2 1 2 2 1 2 1 2 2 3 6 8 6 8 9 9 10 11 10 9 9 10 8 7 6 7 8 9 8 8 8 9 10 10 8 8 8 7 5 5 7 12 11 11 11 10 10
7 6 6 5 5 6 5 4 3 3 3 3 4 2 2 2 3 1 2 3 1 3 2 1 1 2 2 3 3 2 2 2 2 2 2 3 2 2 2 1 1 1 1 1 1 2 2 3 4 5 5 8 10 11 11 11 8 6 11 10 8 9 7 8 8 9 8 8 10 10 9 10 9 8 8 7 5 4 3 11 10 11 12 10 8
7 7 6 6 5 5 4 4 4 4 3 3 3 2 1 1 3 2 2 2 3 3 1 0 2 2 2 2 2 3 1 1 2 2 2 2 2 2 1 1 1 1 1 1 1 1 2 2 1 1 1 3 7 9 9 8 8 9 10 7 8 9 10 9 9 9 9 10 12 12 10 11 11 10 8 5 4 5 9 7 9 11 13 11 10
7 7 7 6 6 5 5 4 4 4 4 4 4 3 5 4 4 4 3 1 1 1 1 1 2 3 2 3 2 2 1 2 1 2 2 2 0 1 1 1 1 2 2 1 1 0 1 1 1 0 1 2 4 5 5 5 4 6 5 6 8 9 9 10 10 11 11 11 11 11 11 11 10 10 9 8 7 8 9 7 9 13 14 11 11
7 7 7 6 6 5 5 4 4 4 4 5 5 5 3 3 2 2 3 2 2 1 1 1 2 1 3 4 3 3 2 1 2 1 2 1 0 1 1 1 1 2 2 2 1 1 1 2 1 1 0 1 1 0 2 2 3 7 9 9 7 9 10 10 9 11 12 10 10 11 11 10 8 10 11 9 7 8 8 6 9 13 14 12 11
7 7 7 7 6 5 5 6 5 5 4 3 3 3 3 3 2 1 1 2 3 3 2 3 2 2 2 2 2 3 3 3 3 4 3 2 1 1 1 1 1 1 1 1 2 2 2 1 1 1 1 1 1 1 2 2 2 3 3 6 6 6 7 8 8 8 8 8 8 10 9 10 9 11 8 6 6 7 8 8 8 11 13 14 13
8 7 7 7 7 6 6 5 5 4 4 4 4 4 4 5 4 4 3 0 2 1 3 3 2 1 2 2 1 1 1 2 2 2 4 2 1 1 1 1 1 1 1 1 2 2 2 2 2 2 1 0 0 1 1 1 0 3 4 4 4 3 4 6 5 5 5 6 7 7 8 9 6 5 6 7 6 6 5 4 8 11 11 13 12
8 8 7 7 7 6 5 5 5 5 6 6 5 5 4 3 3 3 2 3 2 3 2 3 3 4 1 1 1 1 1 3 2 3 3 2 0 0 0 1 1 1 1 1 1 1 1 1 2 1 1 1 0 0 1 0 1 3 4 4 5 4 2 2 3 4 3 2 3 3 2 3 7 7 6 6 6 6 7 7 8 9 11 12 11
8 8 7 8 7 6 6 6 5 6 5 5 5 5 5 5 5 4 5 5 4 2 1 2 3 2 5 3 2 0 3 1 1 1 3 1 2 1 1 0 1 1 1 1 1 1 1 1 1 1 1 1 1 0 0 1 2 3 3 3 4 3 3 3 4 3 3 4 5 3 1 3 4 5 5 5 5 5 5 5 6 8 12 10 9
8 7 7 6 6 6 6 6 5 6 6 5 5 3 4 5 5 5 5 4 4 3 3 1 3 3 3 2 2 2 3 2 2 3 2 1 1 3 2 1 1 1 1 1 2 1 1 1 0 2 2 1 1 1 1 1 1 1 1 2 3 2 2 2 1 2 2 3 3 2 1 2 3 4 4 5 5 6 4 3 3 3 3 4 5
7 7 6 6 6 6 7 6 6 6 6 5 5 6 5 5 4 5 6 4 3 4 5 3 2 0 2 2 2 3 3 5 3 3 2 2 3 1 2 1 0 1 2 2 2 3 1 0 1 2 3 2 1 1 1 1 2 1 1 2 2 1 1 0 0 1 2 2 2 1 1 1 2 2 3 3 4 5 5 4 4 4 4 5 5
7 6 6 6 6 6 6 6 6 6 6 7 7 5 4 3 4 5 4 4 5 5 5 3 5 2 1 2 2 2 0 1 3 5 4 4 2 1 1 1 1 2 2 2 3 3 4 2 0 1 2 2 2 1 1 2 2 2 2 4 3 0 2 1 1 1 1 0 1 1 1 2 2 3 3 4 4 4 5 5 5 5 5 5 5
7 6 6 7 8 7 7 6 6 7 7 6 6 6 6 6 5 5 5 5 5 4 4 4 4 4 3 0 2 2 2 2 2 3 3 3 1 2 3 1 0 2 3 2 2 2 2 2 2 2 2 2 3 2 1 1 2 2 3 5 5 4 2 2 3 4 3 3 2 2 2 2 3 3 4 4 4 4 5 5 5 6 6 6 6
6 6 6 8 7 8 8 8 6 6 7 7 7 6 5 6 6 6 6 6 5 4 5 4 5 4 4 4 3 1 1 2 2 3 4 2 5 5 4 5 5 4 2 4 4 3 2 1 2 2 2 2 1 2 2 2 2 2 3 6 6 6 5 4 4 4 4 4 4 4 3 3 3 4 5 5 5 5 5 5 5 6 6 7 7
6 6 8 8 8 9 8 8 7 7 7 7 7 7 6 6 6 5 6 7 5 5 4 3 4 4 4 5 5 5 5 4 4 3 3 2 2 2 1 3 4 3 3 2 3 4 3 2 3 3 2 2 2 2 2 2 3 4 6 6 6 6 5 6 6 6 7 6 6 6 5 5 4 4 5 5 6 6 6 6 6 6 6 7 7
6 6 8 9 8 8 8 7 7 7 8 7 7 7 5 5 5 5 5 5 4 4 4 4 4 4 3 3 4 4 3 3 2 3 4 4 5 5 5 1 1 4 2 2 2 4 4 5 4 3 3 2 2 2 2 3 3 6 6 6 7 7 7 7 7 8 8 8 7 7 8 7 7 7 6 6 7 7 8 8 8 8 8 8 8
7 8 9 10 9 9 8 8 8 7 8 8 7 6 6 6 6 6 5 6 6 5 5 6 6 6 6 4 3 3 4 1 2 3 2 2 3 3 0 1 2 3 1 1 2 1 4 5 5 5 3 3 3 3 3 3 3 4 7 6 8 7 8 8 8 8 8 8 8 8 8 8 8 8 7 7 8 8 9 9 10 10 10 9 9
9 9 8 9 9 10 9 9 8 8 9 8 7 7 7 7 6 6 6 6 5 6 6 6 5 5 3 4 4 4 3 2 3 4 3 3 1 4 3 1 1 1 1 0 1 1 3 4 4 4 4 4 4 3 3 3 4 7 8 6 6 7 8 8 9 9 9 9 9 9 9 10 10 10 9 8 9 9 9 9 10 11 11 11 11
9 8 8 10 10 8 9 8 9 9 8 8 6 7 7 6 6 6 6 5 6 6 6 6 6 6 5 5 4 4 4 3 4 4 4 5 4 5 6 4 0 1 1 1 1 4 5 3 3 4 5 4 3 4 3 3 5 7 7 5 5 6 7 8 9 9 10 10 10 10 10 10 10 10 10 10 10 10 9 10 11 12 12 12 12
7 7 9 10 9 9 9 9 9 9 8 8 8 7 7 7 6 5 6 4 6 7 7 6 6 6 6 4 3 4 4 4 4 4 5 5 4 5 5 5 5 4 2 2 1 3 2 3 2 3 3 3 3 3 4 5 4 7 7 5 4 5 7 8 9 9 10 10 10 10 11 11 11 11 10 10 11 10 10 10 11 12 12 13 12
7 7 7 9 9 10 9 9 9 9 8 7 8 8 7 7 7 6 7 5 6 7 6 7 6 6 5 6 6 4 4 3 3 4 4 3 4 4 6 7 6 4 3 2 3 3 2 2 2 1 1 1 2 1 2 3 5 5 4 4 5 4 6 8 9 9 9 10 10 11 11 12 12 12 11 10 11 11 11 11 11 12 12 11 12
8 7 7 8 9 10 9 9 9 9 8 7 8 8 7 6 7 6 6 6 7 6 6 6 6 5 5 4 4 4 3 3 4 3 4 5 5 5 5 4 5 6 5 4 4 3 3 1 3 2 2 2 2 1 1 3 4 5 4 4 4 4 7 9 9 9 9 9 10 10 10 11 11 11 11 12 11 11 10 10 10 11 12 13 12
8 9 9 8 8 10 9 10 10 8 7 8 8 7 7 7 6 6 6 7 7 7 6 6 6 6 6 6 4 4 3 4 3 2 2 4 5 4 4 4 4 4 5 3 3 2 2 3 2 2 2 1 1 1 2 2 3 4 4 3 3 4 7 6 8 8 8 8 8 8 9 9 10 10 11 11 11 12 12 12 12 12 12 12 12
9 10 9 9 9 10 10 11 11 9 7 8 7 8 7 7 7 7 7 7 7 8 6 5 4 6 6 6 6 5 4 4 4 4 4 3 3 4 4 4 4 3 4 4 4 6 3 3 2 2 2 2 2 3 4 2 2 4 3 3 4 4 3 3 5 7 7 8 8 9 9 9 9 9 10 11 11 11 11 11 11 12 11 11 11
9 10 11 11 11 10 10 10 12 10 10 9 8 7 7 8 8 8 8 8 9 7 6 7 6 6 7 7 6 6 5 6 5 5 4 4 4 3 4 5 5 4 5 5 5 6 3 2 2 2 1 0 2 2 3 3 3 2 2 2 2 2 2 2 3 5 7 7 7 8 8 9 10 10 9 10 10 10 11 11 11 10 10 10 10
11 10 12 10 9 10 9 10 11 11 11 10 8 7 8 9 8 6 7 9 8 9 7 8 7 6 6 8 7 6 6 7 6 5 5 5 5 5 5 6 6 6 6 6 6 5 5 1 2 1 3 2 4 2 4 4 4 3 4 3 1 1 2 2 2 3 5 6 6 7 7 8 8 9 10 11 10 10 10 10 9 10 10 10 10
10 11 11 11 11 11 11 11 11 11 11 10 9 9 10 11 10 8 8 9 9 9 8 8 8 7 7 7 8 6 4 6 6 6 6 6 5 7 7 5 6 6 6 7 6 6 5 4 2 2 4 4 5 5 4 3 3 2 3 3 2 1 2 2 3 3 5 6 6 6 6 7 8 8 8 8 9 10 10 10 10 10 10 10 11
11 10 10 11 11 11 12 12 12 12 11 10 10 10 12 11 11 11 10 10 10 9 10 8 8 8 9 8 8 7 6 8 7 6 5 6 6 6 6 5 6 7 6 5 6 5 4 4 3 5 3 4 5 4 2 1 3 3 3 2 2 3 3 2 3 3 5 8 7 7 7 6 6 6 6 7 7 7 7 8 8 9 9 10 10
11 10 10 10 11 11 12 13 13 12 12 12 12 10 11 10 11 11 11 10 10 11 10 9 8 9 9 9 8 8 8 8 6 6 5 7 6 5 6 5 6 6 4 4 4 4 4 5 4 3 2 3 2 2 1 2 2 2 1 3 3 3 4 4 3 4 6 8 8 8 7 7 5 4 5 5 5 5 5 5 5 6 7 9 9
11 10 11 11 11 13 13 14 13 13 12 12 13 13 11 11 11 10 9 10 10 10 10 9 9 9 10 10 8 9 9 9 8 6 6 7 5 6 6 6 5 4 5 5 4 5 5 5 4 4 2 3 2 2 0 2 3 3 4 3 2 2 3 4 3 3 3 3 2 3 4 4 4 6 7 7 8 7 6 7 9 10 9 8 7
11 10 11 12 12 13 14 13 13 13 13 13 13 12 12 12 12 11 11 10 10 9 9 8 8 8 9 9 9 9 10 9 7 7 8 7 5 6 7 7 6 5 5 5 5 5 5 5 4 4 4 2 2 4 0 0 0 0 3 5 5 2 2 3 5 2 2 3 4 5 4 4 4 3 4 6 8 8 9 9 9 9 9 9 9
13 12 11 13 13 13 13 13 13 12 12 12 12 12 12 12 11 11 11 11 9 9 9 8 8 8 8 8 8 9 10 9 9 7 7 7 6 6 6 6 6 6 6 5 5 4 4 4 4 4 3 3 2 2 0 0 1 2 4 3 9 7 5 2 3 4 2 1 3 3 3 3 3 1 2 5 8 10 10 9 9 8 8 8 8
12 14 14 12 14 14 13 13 13 12 12 12 11 12 12 12 11 12 12 11 10 10 9 8 8 8 8 7 8 7 10 10 12 11 10 9 8 8 7 7 6 7 6 4 5 4 3 3 4 3 3 3 3 2 1 2 3 4 2 6 7 8 5 5 5 3 4 3 3 3 5 4 3 2 1 3 5 9 8 8 7 8 8 8 9
14 13 14 15 14 14 14 13 13 12 12 11 14 19 16 13 12 11 10 11 11 10 10 10 8 8 9 7 8 11 12 14 15 15 15 15 14 11 9 8 8 7 6 6 5 5 5 5 5 4 4 5 4 2 2 2 2 2 3 4 6 6 4 5 5 4 1 1 3 5 5 1 1 3 3 5 5 5 4 4 5 6 8 10 10
16 15 15 15 15 13 14 13 13 12 12 12 18 18 19 19 13 11 12 11 11 11 11 11 11 10 8 7 6 10 12 13 13 15 14 15 15 16 14 13 11 11 8 7 6 6 6 5 4 3 4 4 4 1 2 2 2 2 3 4 5 4 4 5 8 5 1 1 2 2 4 1 1 3 5 6 5 4 5 5 8 10 11 11 11
15 14 16 17 15 14 13 13 13 13 13 15 18 19 20 20 17 13 11 10 10 11 11 11 11 10 9 6 4 3 8 12 11 10 11 13 15 16 14 13 13 13 11 10 8 5 5 5 4 4 3 4 3 1 2 2 3 3 3 3 3 4 5 6 7 7 1 2 2 4 6 3 1 3 5 6 5 4 6 8 11 12 11 11 11
15 16 17 15 15 14 14 15 15 14 12 16 18 20 20 20 21 16 10 11 11 11 11 11 11 10 7 7 9 10 8 13 10 8 8 10 13 15 13 12 12 12 12 9 3 5 5 5 4 3 5 3 4 3 3 3 2 3 2 3 3 3 3 6 8 5 3 1 2 3 6 5 4 5 6 6 6 5 7 9 11 11 12 12 13
15 15 15 16 15 14 15 15 14 13 14 15 19 20 20 21 21 18 12 12 12 12 12 11 10 10 9 11 10 6 6 8 9 9 8 8 7 7 7 6 6 7 6 7 6 6 5 5 5 5 4 5 4 2 3 3 2 6 5 6 5 5 6 8 6 5 3 1 4 3 4 6 5 5 6 6 5 5 6 8 10 11 13 14 13
15 15 15 15 15 15 15 14 12 13 14 17 19 20 20 21 21 18 12 11 10 10 10 10 10 10 10 11 11 9 7 8 9 10 10 9 8 7 7 7 6 5 5 5 5 4 4 4 5 5 2 3 3 2 1 2 5 5 5 6 6 6 5 2 3 3 4 2 3 2 5 3 2 4 7 7 5 5 5 6 9 13 14 13 13
13 12 12 13 14 14 14 13 13 15 14 17 19 20 21 21 21 13 11 11 11 10 9 9 10 9 10 11 10 11 11 11 13 17 15 9 9 8 8 6 5 4 4 2 4 5 4 4 3 3 2 2 2 3 3 3 4 4 2 2 0 1 2 3 4 2 4 1 3 3 3 4 3 5 7 5 4 6 5 5 9 13 12 11 11
13 13 13 13 12 13 14 14 15 15 12 15 20 21 21 22 15 10 11 10 10 10 10 10 9 9 9 10 11 11 11 11 14 16 14 10 9 9 9 8 6 5 4 3 3 3 4 4 3 2 2 3 4 4 4 4 4 2 2 1 3 2 3 4 4 2 4 1 1 4 3 6 5 4 6 5 5 6 6 6 6 9 11 12 12
14 14 13 12 12 12 14 16 16 15 13 14 20 20 21 20 17 12 11 11 11 10 9 8 7 7 10 16 14 11 11 11 14 15 14 13 9 9 9 9 8 6 4 5 4 2 4 6 5 5 5 4 3 2 2 3 4 4 4 5 2 2 3 3 4 2 3 4 3 3 3 5 3 2 5 4 5 4 4 4 5 7 9 9 12
14 12 12 11 11 12 14 16 16 17 13 12 19 19 20 20 18 11 10 10 10 9 9 7 7 7 7 12 16 12 11 11 16 15 16 13 9 9 9 8 8 7 6 8 6 6 5 5 3 3 3 2 2 1 1 2 5 5 4 4 2 3 3 2 3 2 4 3 2 4 4 4 4 3 2 5 6 4 2 4 4 4 5 5 7
Wind_Direction
227 233 233 246 258 265 259 263 259 266 277 274 247 284 290 298 301 315 344 54 73 257 345 303 302 243 236 235 223 205 210 216 216 211 218 207 217 233 248 246 237 232 217 212 210 242 237 235 217 231 216 222 218 210 208 207 217 201 201 205 203 202 205 208 205 204 205 214 216 209 209 207 207 209 214 224 231 234 241 243 237 235 245 260 246
226 232 221 255 259 263 262 262 263 275 257 254 218 227 256 278 283 76 97 89 261 282 304 305 262 278 183 228 225 212 194 201 226 217 205 198 209 233 235 244 236 242 215 208 205 223 228 225 246 217 231 232 226 228 224 214 214 209 210 208 208 210 212 210 215 216 214 216 220 215 217 221 219 220 222 232 239 245 248 251 253 254 253 258 252
223 227 219 243 266 266 259 257 260 245 226 241 213 221 239 247 269 87 136 178 204 269 307 313 320 54 352 209 233 188 190 193 212 221 212 191 192 210 229 237 236 235 229 188 217 227 225 228 231 225 215 225 235 230 218 215 243 253 219 216 215 215 215 217 219 222 223 221 221 224 225 228 229 235 239 252 254 260 259 257 257 258 261 265 270
219 224 219 232 242 245 251 238 241 227 218 233 227 230 236 257 210 117 136 150 130 329 308 323 11 22 305 348 304 176 152 174 214 221 227 192 184 197 214 233 243 236 242 195 207 174 223 237 233 227 222 220 225 216 227 217 208 229 247 258 240 231 220 222 220 223 225 225 226 229 233 234 232 232 232 253 254 247 256 264 262 257 256 259 262
218 219 229 221 237 245 243 232 239 225 209 222 222 222 219 237 248 118 41 31 72 12 340 75 79 16 350 356 331 335 79 164 204 227 226 195 191 191 200 225 240 244 239 223 167 189 209 223 225 223 219 227 228 227 236 228 213 220 242 233 253 268 268 237 227 226 227 229 231 233 236 241 241 241 228 226 246 252 248 248 257 264 268 266 261
214 223 216 224 231 239 247 249 234 225 211 204 216 196 209 215 232 138 91 51 344 25 12 6 40 69 321 324 323 315 353 125 178 210 210 197 182 192 194 218 221 231 277 260 146 186 200 216 224 215 216 222 237 245 237 230 213 219 222 227 229 235 240 252 247 255 242 241 236 251 251 241 245 247 245 240 242 248 251 254 255 259 258 262 263
208 215 217 215 227 236 238 242 238 214 206 205 203 187 185 213 214 100 48 296 341 342 36 344 92 98 307 307 328 360 347 55 115 181 187 173 175 190 201 196 205 195 251 198 86 176 201 212 219 221 216 205 239 241 247 234 230 235 239 224 217 216 251 262 250 243 247 247 235 229 246 255 255 249 246 249 247 247 254 258 263 265 262 256 258
215 205 215 210 215 226 235 239 232 196 203 189 171 191 196 211 218 131 235 338 317 313 17 6 59 126 235 12 30 32 38 58 87 140 158 166 177 185 193 172 169 194 225 230 173 179 205 214 221 224 219 210 216 222 225 229 231 233 238 238 234 222 206 235 251 249 239 245 248 243 242 241 241 249 257 266 279 292 297 291 285 278 274 266 263
214 206 208 207 210 223 230 222 201 187 184 181 189 184 187 207 181 98 142 207 265 314 345 350 44 78 349 70 43 74 66 77 118 169 165 168 175 188 178 179 190 206 193 166 200 226 223 226 221 231 212 215 217 228 231 230 227 236 244 244 238 236 228 226 235 243 250 247 244 248 250 250 242 242 244 250 264 290 310 329 312 304 299 302 307
210 204 208 209 206 216 219 202 177 167 176 173 202 154 155 171 218 148 145 159 172 257 264 309 19 62 53 59 11 49 88 118 155 167 204 164 180 185 191 170 146 67 102 170 189 221 239 232 227 225 222 192 210 225 233 232 226 223 247 246 250 242 242 242 243 248 245 253 258 252 252 254 246 240 240 249 242 273 233 237 266 276 273 271 273
206 197 203 210 207 209 208 193 166 167 166 180 188 182 164 152 216 218 182 191 188 210 199 252 0 34 72 40 25 333 334 126 130 154 219 220 168 172 172 158 115 97 97 106 145 216 231 243 240 271 228 220 209 211 219 231 217 218 233 237 257 264 257 249 251 249 246 245 247 250 250 253 255 257 254 248 251 203 231 247 266 284 283 287 298
203 198 202 204 198 198 200 180 172 156 169 182 204 199 209 208 229 220 245 250 194 165 135 143 46 54 19 55 28 297 261 117 167 208 232 221 149 134 178 118 87 72 75 74 76 147 184 199 254 352 276 260 222 211 215 220 202 238 227 236 250 250 248 247 244 247 252 247 255 259 259 260 268 269 256 251 249 236 231 219 245 262 270 268 264
201 194 201 202 198 192 186 179 169 172 179 204 201 201 202 190 226 226 221 253 287 115 211 88 126 26 10 19 31 335 298 21 312 304 296 324 56 139 99 91 55 54 56 79 84 102 139 169 170 169 354 358 328 218 197 198 170 173 210 220 232 243 238 243 250 253 251 260 273 276 277 280 288 278 269 264 269 275 264 252 239 240 254 258 258
200 196 199 195 187 184 185 184 175 185 193 183 192 192 182 189 163 278 45 218 247 187 180 137 27 150 128 320 9 346 6 9 359 332 338 328 326 142 105 102 91 66 65 71 66 64 58 70 122 68 43 19 30 30 55 65 75 82 129 167 200 213 234 237 244 250 256 261 262 271 296 302 291 286 283 292 281 267 265 261 265 254 252 249 242
201 195 195 193 193 183 185 180 182 175 175 189 187 191 187 190 187 203 226 35 264 186 172 189 142 99 101 109 299 85 341 358 329 3 355 354 248 196 148 161 102 81 39 60 46 31 37 40 53 60 49 55 29 67 55 56 114 129 106 84 98 176 207 240 233 242 249 259 272 284 267 269 285 285 293 293 306 301 288 288 277 271 269 265 259
199 197 196 194 189 187 172 177 182 181 183 183 186 198 185 186 184 201 149 228 239 250 167 181 142 143 144 26 281 139 43 275 313 333 351 40 80 194 33 116 120 95 67 254 69 30 13 37 57 67 184 226 228 101 95 83 333 105 103 95 80 58 46 77 173 196 212 231 264 277 202 265 266 279 288 267 262 269 276 278 281 300 285 269 266
200 198 192 194 191 186 177 180 177 190 180 187 190 198 190 191 180 175 188 198 233 265 313 167 186 142 133 117 80 28 217 241 59 318 353 61 30 87 126 15 251 160 169 263 63 30 339 14 48 154 219 230 290 334 28 16 13 61 56 81 92 84 57 39 59 92 105 105 95 103 223 270 306 311 320 327 321 306 298 285 269 250 262 270 279
201 198 193 185 186 184 180 175 180 189 194 194 188 164 183 185 190 183 193 211 190 184 276 183 197 185 140 142 164 171 191 198 127 208 6 28 11 69 46 51 297 219 341 299 303 339 320 334 59 232 220 216 266 295 323 6 27 43 78 31 72 83 70 36 29 44 65 62 74 86 52 16 6 353 356 358 355 354 355 3 6 344 330 321 286
200 194 188 185 179 179 181 186 183 183 194 188 198 202 185 195 166 180 201 174 141 199 213 213 54 88 172 158 193 240 175 138 195 73 132 325 21 31 67 50 331 265 229 253 295 302 296 196 179 230 230 214 222 290 303 298 295 298 241 175 160 146 126 100 63 52 72 71 75 71 11 358 359 339 351 345 344 341 341 340 333 326 325 328 332
201 192 186 183 178 181 184 184 180 190 188 197 204 195 170 170 181 192 168 181 183 195 214 183 181 203 159 170 106 106 85 55 142 160 152 165 225 10 52 36 183 251 260 262 267 285 302 333 5 228 237 231 218 242 265 294 317 322 322 321 306 249 173 197 222 237 250 303 330 328 342 332 341 332 320 325 331 333 335 332 330 327 322 320 322
204 188 185 183 191 190 187 185 182 190 193 197 205 190 184 171 173 177 185 194 191 201 169 198 189 183 143 320 70 47 45 52 79 72 123 132 298 210 200 356 252 252 251 254 265 256 269 298 285 239 223 223 228 227 246 279 293 315 308 306 300 291 260 215 213 231 243 253 272 285 300 309 307 318 317 318 320 322 323 324 323 321 316 312 314
199 191 185 191 192 193 196 194 187 179 194 198 194 195 181 183 187 184 178 195 204 196 202 199 196 198 187 155 145 44 32 69 54 75 49 73 170 200 199 181 218 254 246 248 252 266 267 276 278 293 261 253 219 214 204 232 249 260 264 275 279 276 276 274 267 260 259 260 258 264 270 280 295 304 309 302 302 301 301 302 302 301 304 307 309
189 194 194 191 196 198 196 198 191 188 191 189 197 201 188 184 181 174 180 195 200 196 220 199 196 201 186 167 182 178 182 178 192 187 131 141 79 208 219 206 215 253 267 270 264 267 270 258 267 261 263 263 247 243 233 225 242 247 257 258 265 271 264 254 255 262 268 262 266 269 273 281 288 291 297 300 297 297 296 294 292 294 296 302 303
184 189 195 196 196 201 200 195 192 189 194 195 198 200 182 176 168 176 189 198 191 177 201 197 196 206 206 182 189 186 165 173 189 161 170 187 174 188 195 87 314 241 308 317 242 260 263 253 246 253 247 252 244 234 232 242 247 251 258 258 261 259 256 253 247 247 248 255 259 265 271 275 278 282 285 288 291 290 293 293 293 293 294 293 296
196 197 202 195 197 198 195 194 192 195 196 193 196 177 182 176 180 176 178 182 193 191 192 205 191 192 206 185 173 167 214 198 125 145 69 104 128 106 28 19 195 267 278 10 267 264 228 246 232 231 230 230 242 227 228 237 243 245 252 253 245 255 258 257 253 249 248 248 249 249 251 253 259 259 258 262 268 271 275 280 282 284 283 284 285
196 205 196 195 202 203 197 195 192 190 193 196 183 185 179 184 180 183 182 197 187 195 205 207 195 213 190 172 189 189 203 169 150 140 155 124 129 155 146 81 108 269 305 236 327 248 252 234 227 220 222 221 230 222 227 233 240 243 245 257 257 253 256 258 258 257 256 256 256 256 254 254 256 258 255 254 260 263 266 269 274 278 281 281 279
199 198 183 195 200 200 200 194 193 191 191 194 184 184 182 182 187 191 192 188 191 194 208 198 199 202 196 196 185 189 186 172 162 179 156 178 171 162 152 152 249 29 332 326 315 213 243 297 224 211 215 221 221 239 237 234 245 246 241 246 259 260 260 262 264 264 263 261 263 264 265 264 265 263 261 263 263 262 263 265 271 275 275 274 272
192 176 188 191 197 200 199 199 193 192 190 185 182 181 179 185 190 184 200 175 192 194 209 195 208 204 202 185 164 207 182 176 187 169 183 177 175 149 159 155 169 245 335 300 332 275 193 236 323 221 216 206 227 229 238 245 245 249 245 235 229 249 257 263 267 270 272 273 275 276 276 275 274 273 270 270 268 265 263 265 269 271 273 274 272
185 179 177 190 193 196 197 199 195 193 189 188 184 184 181 187 189 188 200 187 191 206 205 197 209 196 193 185 194 195 194 169 171 174 165 156 178 175 176 175 171 170 208 246 265 249 288 193 227 313 172 200 200 206 227 235 248 245 223 228 232 235 250 252 257 263 267 271 272 271 271 273 275 275 272 270 273 271 270 270 271 274 275 272 270
183 180 177 180 190 193 195 195 196 195 192 187 184 183 180 192 191 193 199 188 200 204 205 196 204 190 189 172 174 191 163 175 187 172 168 174 165 178 191 184 159 185 192 224 270 209 250 234 212 256 336 14 9 326 231 249 244 242 221 218 227 238 250 255 260 259 260 262 264 264 265 267 269 272 274 276 278 279 279 275 273 273 272 275 276
180 177 179 182 185 193 190 195 196 195 193 193 186 182 183 191 186 195 193 194 204 210 204 190 199 185 188 190 173 189 163 181 161 165 168 170 175 164 164 147 178 174 171 156 266 276 178 271 260 217 259 345 77 276 246 236 249 233 227 216 230 232 248 261 264 272 275 277 279 279 276 275 276 276 276 276 277 280 280 279 279 276 272 271 271
187 182 183 183 183 189 194 197 197 198 191 196 187 184 182 195 189 192 195 192 202 211 206 195 193 190 188 193 184 185 175 166 173 175 171 176 163 164 163 159 154 146 139 161 212 258 220 226 258 287 218 250 291 282 280 260 202 224 224 229 232 241 251 261 277 282 284 285 289 291 293 290 283 278 280 282 282 281 278 274 274 274 274 277 278
182 183 187 188 186 187 187 193 197 194 197 196 193 186 186 194 201 202 198 194 206 213 205 200 197 188 193 196 189 189 168 177 182 173 172 168 159 157 150 145 154 157 158 174 209 251 273 208 240 255 12 344 278 236 269 287 303 273 250 253 259 258 262 260 264 266 264 270 275 282 287 293 295 291 281 273 273 272 273 276 280 282 282 278 274
184 186 190 187 183 184 186 193 197 198 197 198 190 186 189 199 203 198 201 198 208 218 206 215 192 196 190 199 197 183 179 186 179 180 181 170 171 163 171 170 169 176 186 167 207 210 236 238 234 224 261 211 240 205 222 244 255 266 287 294 290 240 244 248 250 251 251 254 257 262 272 276 277 283 290 293 288 284 282 283 285 289 290 290 291
189 191 191 189 184 185 191 195 197 200 197 195 193 192 199 202 203 202 202 201 207 212 209 214 196 186 193 200 203 177 167 187 193 195 181 182 180 181 182 182 180 187 186 198 182 209 213 241 196 209 213 199 214 228 216 219 242 252 274 275 283 249 223 235 251 262 265 267 275 284 290 294 294 288 280 276 279 282 286 290 296 297 297 299 302
189 193 192 190 186 187 192 196 199 200 197 195 195 199 202 202 206 208 205 207 210 212 213 208 197 187 199 197 205 175 173 194 201 194 193 187 182 189 186 187 192 196 193 193 208 195 186 211 223 207 206 192 231 243 238 240 251 253 238 269 241 258 267 253 248 249 263 266 271 280 281 272 265 274 281 275 266 263 266 272 278 281 286 293 296
191 190 194 190 190 191 196 198 200 200 197 193 197 201 204 204 206 207 207 207 211 213 213 211 202 199 201 206 194 173 179 194 195 198 180 192 191 187 195 187 200 204 176 183 193 193 179 209 232 238 234 245 254 272 181 235 256 246 228 239 261 278 276 269 262 258 263 269 271 272 279 285 295 291 278 284 302 310 305 287 265 256 258 266 274
192 194 194 193 194 197 200 201 200 200 195 194 199 202 200 201 206 207 208 209 211 212 213 208 206 204 207 208 194 180 183 194 202 200 189 203 188 193 196 197 201 183 189 188 186 190 204 224 219 249 210 236 243 249 177 182 238 278 275 273 270 243 263 282 254 241 231 235 218 234 249 265 296 314 322 333 324 312 307 308 309 309 306 292 270
191 193 197 198 202 202 204 200 201 198 195 197 201 202 201 201 204 205 208 209 210 212 214 207 204 206 207 206 195 189 194 196 185 197 196 198 190 199 203 203 193 189 193 192 181 185 201 219 232 236 257 235 224 257 79 217 235 293 339 336 314 239 242 267 286 251 228 244 244 244 252 262 274 285 332 312 303 301 308 306 303 301 300 300 301
197 196 195 201 204 205 204 202 201 195 195 199 203 203 201 201 200 205 206 207 207 210 210 210 207 207 207 202 194 194 195 184 186 205 206 202 202 201 205 200 193 191 199 194 175 195 200 213 227 235 221 238 191 213 177 39 325 67 63 354 299 297 290 274 264 295 298 268 298 288 275 274 270 321 347 305 296 300 298 298 293 293 293 291 290
197 201 202 200 205 208 206 203 199 195 196 201 202 200 200 201 201 203 204 205 206 208 209 208 209 209 208 203 196 188 195 178 178 195 197 206 195 204 204 192 191 191 196 182 195 186 211 218 241 227 237 238 243 238 234 209 230 196 202 247 264 275 290 294 282 256 242 260 269 282 293 306 309 291 279 281 289 295 294 292 291 283 277 280 286
196 198 202 203 205 206 203 202 199 198 201 205 204 198 196 197 197 201 200 206 206 207 210 213 210 208 211 199 197 187 176 180 194 205 213 214 213 209 200 191 189 181 184 184 186 197 200 213 231 222 228 249 243 201 217 215 169 157 227 250 252 267 288 284 285 260 238 190 285 293 285 297 266 304 306 288 278 271 273 278 268 278 286 289 288
198 198 199 203 207 204 203 200 199 202 204 208 201 194 197 196 193 197 200 204 204 206 211 210 214 214 212 200 176 185 184 189 197 210 217 212 217 218 209 193 189 183 175 178 195 191 194 216 214 197 224 251 254 172 228 262 205 197 220 223 250 265 272 288 293 307 63 186 256 275 285 168 139 285 282 274 271 271 269 265 272 278 279 279 278
201 197 200 206 205 203 204 204 203 205 207 209 196 193 194 195 194 197 200 201 201 208 210 211 215 214 212 173 113 149 209 201 199 203 220 223 221 222 213 200 195 193 184 181 190 186 192 205 207 213 207 231 257 220 236 237 250 239 228 240 242 260 276 280 282 285 337 2 299 286 286 285 224 247 268 270 274 271 273 278 280 278 278 279 285
199 200 204 202 203 202 203 205 208 206 211 206 195 192 192 192 195 197 201 201 202 208 208 208 208 205 185 137 164 202 213 204 192 194 203 219 221 217 210 200 193 191 195 195 136 178 171 181 203 201 203 207 235 230 198 204 157 253 259 255 237 241 253 275 280 279 292 69 277 271 278 286 298 286 277 268 266 268 277 273 272 278 285 295 303
202 203 203 203 202 201 204 206 206 208 213 203 193 190 190 191 195 197 205 201 207 209 208 205 202 198 174 178 189 193 201 197 200 193 205 221 211 194 192 181 188 193 173 139 120 122 149 164 175 210 198 181 218 193 173 155 217 265 271 279 283 283 279 277 287 280 286 160 268 285 276 280 275 276 273 273 267 266 262 270 280 290 292 294 298
202 203 203 203 203 203 204 203 204 210 217 197 189 189 190 191 195 195 205 205 206 209 208 205 200 194 180 191 192 194 205 202 193 195 199 206 197 192 176 177 176 155 147 148 155 168 174 187 192 218 164 181 213 228 191 201 244 256 260 274 287 288 294 316 276 251 274 218 206 180 265 270 265 269 269 276 283 280 278 293 292 286 286 287 287
207 205 205 205 205 203 201 201 205 214 215 191 187 188 190 192 191 193 202 206 206 204 204 202 199 190 183 187 188 181 189 197 191 192 201 188 179 166 169 164 141 123 128 154 156 171 178 185 196 204 204 176 196 230 231 242 243 243 251 251 202 224 254 271 271 309 281 239 188 213 259 267 259 272 280 287 292 284 289 287 283 281 284 287 291
203 203 205 203 203 201 200 203 208 215 214 190 186 188 190 191 181 195 199 205 206 203 205 199 196 184 180 180 182 183 184 192 191 193 193 168 175 172 162 153 138 132 137 144 145 157 177 159 153 141 143 180 207 233 239 222 218 170 130 92 250 210 230 266 277 278 268 274 206 208 254 277 266 270 285 289 291 290 288 281 283 293 299 304 301
204 206 201 204 201 201 201 206 208 210 213 190 187 188 189 185 181 191 195 197 205 203 202 190 183 180 184 178 179 178 182 188 181 184 184 176 174 169 156 149 145 143 149 156 145 108 108 120 129 151 159 151 164 177 209 194 197 185 167 225 221 159 235 236 266 263 301 304 275 165 224 257 299 257 283 285 283 251 266 275 287 296 302 300 299
206 199 200 203 202 202 206 209 206 208 211 192 186 187 188 184 187 194 188 194 197 201 194 188 179 179 177 182 179 179 181 175 168 179 179 179 172 165 160 153 153 160 167 158 146 140 141 143 133 142 123 87 65 24 63 120 180 205 212 233 159 207 239 243 258 302 296 271 245 168 245 274 288 280 292 301 291 274 249 273 282 288 286 282 286